Grantley Adams, Barbados

12:41 AM AST on April 23, 2018 (GMT -0400)
Grantley Adams International

Weather History for TBPB - June, 2013

Change the Weather History Date:

Friday, June 28, 2013

  Actual Average Record
Temperature  
Mean Temperature 80 °F -  
Max Temperature 87 °F 85 °F 88 °F (2014)
Min Temperature 73 °F 76 °F 73 °F (2013)
Cooling Degree Days 15    
Growing Degree Days 30 (Base 50)    
Moisture  
Dew Point 75 °F    
Average Humidity 84    
Maximum Humidity 100    
Minimum Humidity 58    
Precipitation  
Precipitation 0.28 in - - ()
Sea Level Pressure  
Sea Level Pressure 29.96 in    
Wind  
Wind Speed 17 mph ()    
Max Wind Speed 24 mph    
Max Gust Speed -    
Visibility 6.9 miles    
Events Rain    
Averages and records for this station are not official NWS values.
T = Trace of Precipitation, MM = Missing Value Source: Averaged Metar Reports

Daily Weather History Graph

Daily Weather History Graph

Search for Another Location

Airport or City:

Astronomy

Jun. 28, 2013 Rise Set
Actual Time 5:34 AM AST 6:27 PM AST
Civil Twilight 5:11 AM AST 6:51 PM AST
Nautical Twilight 4:43 AM AST 7:18 PM AST
Astronomical Twilight 4:15 AM AST 7:46 PM AST
Moon 11:00 PM AST (6/28) 10:36 AM AST (6/28)
Length of Visible Light 13h 40m
Length of Day
12h 53m
Waning Gibbous, 66% of the Moon is Illuminated
Jun 28
Waning Gibbous
Jun 30
Last Quarter
Jul 8
New
Jul 15
First Quarter
Jul 22
Full

Hourly Weather History & Observations

Time (AST) Temp. Heat Index Dew Point Humidity Pressure Visibility Wind Dir Wind Speed Gust Speed Precip Events Conditions
12:00 AM 80.6 °F 86.2 °F 75.2 °F 84% 30.01 in 6.2 mi East 20.7 mph - N/A   Scattered Clouds
1:00 AM 80.6 °F 85.4 °F 73.4 °F 79% 29.98 in 6.2 mi ESE 21.9 mph - N/A   Scattered Clouds
2:00 AM 80 °F - 75 °F 81% 29.95 in 16 mi East 17.3 mph - -   Partly Cloudy
2:00 AM 80.6 °F 86.2 °F 75.2 °F 84% 29.95 in 6.2 mi East 17.3 mph - N/A   Scattered Clouds
3:00 AM 80.6 °F 86.2 °F 75.2 °F 84% 29.95 in 6.2 mi East 16.1 mph - N/A   Scattered Clouds
4:00 AM 80.6 °F 85.4 °F 73.4 °F 79% 29.95 in 6.2 mi East 20.7 mph - N/A   Scattered Clouds
5:00 AM 80 °F - 74 °F 79% 29.95 in 11 mi East 23.0 mph - -   Partly Cloudy
5:00 AM 80.6 °F 86.2 °F 75.2 °F 84% 29.95 in 6.2 mi North 23.0 mph - N/A   Scattered Clouds
6:00 AM 78.8 °F - 75.2 °F 89% 29.95 in 6.2 mi East 19.6 mph - N/A   Scattered Clouds
7:00 AM 80.6 °F 86.2 °F 75.2 °F 84% 29.95 in 6.2 mi East 18.4 mph - N/A Rain Light Rain Showers
8:00 AM 82 °F - 75 °F 75% 29.98 in 16 mi East 23.0 mph - - Rain Light Rain Showers
8:00 AM 82.4 °F 89.5 °F 75.2 °F 79% 29.98 in 6.2 mi East 23.0 mph - N/A   Mostly Cloudy
9:00 AM 84.2 °F 92.3 °F 75.2 °F 74% 29.98 in 6.2 mi East 21.9 mph - N/A   Mostly Cloudy
10:00 AM 84.2 °F 89.6 °F 71.6 °F 66% 29.98 in 6.2 mi East 20.7 mph - N/A   Mostly Cloudy
11:00 AM 84 °F - 72 °F 58% 29.97 in 16 mi East 23.0 mph - -   Mostly Cloudy
11:00 AM 84.2 °F 89.6 °F 71.6 °F 66% 29.98 in 6.2 mi East 23.0 mph - N/A   Mostly Cloudy
12:00 PM 86.0 °F 95.1 °F 75.2 °F 70% 29.95 in 6.2 mi East 24.2 mph - N/A   Mostly Cloudy
1:00 PM 82.4 °F 90.9 °F 77.0 °F 84% 29.95 in 6.2 mi East 18.4 mph - N/A   Mostly Cloudy
2:00 PM 82 °F - 77 °F 81% 29.93 in 5 mi East 19.6 mph - - Rain Light Rain Showers
2:00 PM 82.4 °F 90.9 °F 77.0 °F 84% 29.92 in 5.6 mi East 19.6 mph - N/A Rain Light Rain Showers
3:00 PM 82.4 °F 88.2 °F 73.4 °F 74% 29.92 in 6.2 mi East 16.1 mph - N/A   Scattered Clouds
4:00 PM 80.6 °F 87.1 °F 77.0 °F 89% 29.92 in 6.2 mi East 17.3 mph - N/A   Scattered Clouds
5:00 PM 80 °F - 76 °F 84% 29.92 in 11 mi ENE 13.8 mph - -   Scattered Clouds
5:00 PM 80.6 °F 86.2 °F 75.2 °F 84% 29.92 in 6.2 mi ENE 13.8 mph - N/A   Mostly Cloudy
6:00 PM 80.6 °F 87.1 °F 77.0 °F 89% - 6.2 mi East 17.3 mph - N/A   Mostly Cloudy
6:15 PM 75.2 °F - 71.6 °F 89% - 1.9 mi SSE 20.7 mph - N/A Rain Heavy Rain Showers
7:00 PM 77.0 °F - 75.2 °F 94% - 6.2 mi ESE 21.9 mph - N/A Rain Light Rain Showers
8:00 PM 76 °F - 74 °F 94% 29.97 in 2 mi SW 21.9 mph - - Rain Light Rain Showers
8:00 PM 75.2 °F - 75.2 °F 100% - 6.2 mi SW 21.9 mph - N/A Rain Light Rain Showers
9:00 PM 75.2 °F - 75.2 °F 100% - 6.2 mi West 8.1 mph - N/A Rain Light Rain
10:00 PM 75.2 °F - 75.2 °F 100% - 6.2 mi North 3.5 mph - N/A   Overcast
11:00 PM 73 °F - 73 °F 100% 29.97 in 2 mi NE 5.8 mph - -   Overcast
11:00 PM 73.4 °F - 73.4 °F 100% 29.98 in 6.2 mi NE 5.8 mph - N/A   Overcast